Погода в Берфорде

Великобритания     51°48′28″N   1°38′10″W
темп.,
°C
ветер,
м/с
пор.,
м/с
влажн.,
%
обл.,
%
осадки,
мм/ч
давл.,
гПа
погр.,
м
29 мая, вс
вс2901:00+8в2694100 0.3 1023193
04:00+7св2489100 0.0 1023120
07:00+8с2484100 0.0 1022164
10:00+12ссв346398 0.0 10211212
13:00+13ссв446290 0.4 10201437
16:00+10с6784100 0.5 1019540
19:00+11с247511 0.8 1018649
22:00+6св22915 0.3 101823
30 мая, пн
пн3001:00+4в229340 0.3 101713
04:00+3ююв119184 0.0 101610
07:00+6ю1286100 0.0 101694
10:00+11ю3473100 0.0 1015609
13:00+13ююз456197 0.3 10141376
16:00+13юз567292 1.0 10131225
19:00+10юз589493 2.4 1013362
22:00+8ююз2396100 0.1 101473
31 мая, вт
вт3101:00+6юз3393100 0.1 101450
04:00+5зюз2392100 0.0 101437
07:00+7зюз25915 0.0 1014144
10:00+13зюз45665 0.0 10141053
13:00+13юз5676100 0.9 10141177
16:00+13юз698585 1.9 10131041
19:00+12зсз598528 3.1 1014693
22:00+7зсз49891 0.0 1016166
1 июня, ср
ср101:00+5зсз33905 0.0 101739
04:00+5зсз339033 0.0 101738
07:00+8зсз238629 0.0 1018126
10:00+13сз346739 0.0 1019958
13:00+14сз3360100 0.1 10201533
16:00+15сз235790 0.0 10201449
19:00+15з116229 0.0 1020880
22:00+9з11774 0.0 102110
2 июня, чт
чт201:00+8сз11791 0.0 102210
04:00+6ссв11835 0.0 102210
07:00+10всв11785 0.0 102259
10:00+15юв236459 0.0 1021719
13:00+17ююв335567 0.1 10201715
16:00+18ююв2355100 0.0 10181823
19:00+15юз358198 0.1 1017208
22:00+12юз2285100 0.1 101742